Weather History for VIJP - August, 2013

Change the Weather History Date:

Friday, August 9, 2013

  Actual Average Record
Temperature  
Mean Temperature 82 °F -  
Max Temperature 87 °F - - ()
Min Temperature 77 °F - - ()
Cooling Degree Days 17    
Growing Degree Days 32 (Base 50)    
Moisture  
Dew Point 77 °F    
Average Humidity 94    
Maximum Humidity 100    
Minimum Humidity 66    
Precipitation  
Precipitation 0.83 in - - ()
Sea Level Pressure  
Sea Level Pressure 29.62 in    
Wind  
Wind Speed 4 mph ()    
Max Wind Speed 10 mph    
Max Gust Speed -    
Visibility 1.7 miles    
Events Rain , Thunderstorm    
T = Trace of Precipitation, MM = Missing Value Source: Averaged Metar Reports

Daily Weather History Graph

Daily Weather History Graph

Search for Another Location

Airport or City:

Trip Planner

Search our weather history database for the weather conditions in past years. The results will help you decide how hot, cold, wet, or windy it might be!

Date:

Astronomy

Aug. 09, 2013 Rise Set
Actual Time 5:55 AM IST 7:08 PM IST
Civil Twilight 5:30 AM IST 7:33 PM IST
Nautical Twilight 5:01 AM IST 8:02 PM IST
Astronomical Twilight 4:31 AM IST 8:32 PM IST
Moon 7:55 AM IST (8/9) 8:25 PM IST (8/9)
Length of Visible Light 14h 02m
Length of Day
13h 13m
Waxing Crescent, 5% of the Moon is Illuminated
Aug 9
Waxing Crescent
Aug 14
First Quarter
Aug 21
Full
Aug 28
Last Quarter
Sep 5
New

Hourly Weather History & Observations

Time (IST) Temp. Heat Index Dew Point Humidity Pressure Visibility Wind Dir Wind Speed Gust Speed Precip Events Conditions
12:00 AM 78.8 °F - 77.0 °F 94% 29.65 in 1.9 mi West 5.8 mph - N/A   Mostly Cloudy
1:00 AM 78.8 °F - 77.0 °F 94% 29.65 in 1.9 mi Variable 3.5 mph - N/A   Mostly Cloudy
2:00 AM 78.8 °F - 77.0 °F 94% 29.62 in 1.9 mi WSW 3.5 mph - N/A   Mostly Cloudy
2:30 AM 78 °F - 77 °F 97% 29.57 in 1 mi West 4.6 mph - -   Mist
3:00 AM 78.8 °F - 77.0 °F 94% 29.62 in 1.9 mi WSW 4.6 mph - N/A   Mostly Cloudy
4:00 AM 78.8 °F - 77.0 °F 94% 29.62 in 1.9 mi WSW 4.6 mph - N/A   Mostly Cloudy
5:00 AM 77.0 °F - 77.0 °F 100% 29.62 in 1.9 mi West 5.8 mph - N/A   Mostly Cloudy
5:30 AM 78 °F - 77 °F 94% 29.54 in 1 mi West 5.8 mph - -   Mist
6:00 AM 77.0 °F - 77.0 °F 100% 29.62 in 1.9 mi West 5.8 mph - N/A   Scattered Clouds
7:00 AM 77.0 °F - 77.0 °F 100% 29.65 in 1.9 mi WNW 3.5 mph - N/A   Mostly Cloudy
8:00 AM 78.8 °F - 77.0 °F 94% 29.65 in 1.9 mi Variable 1.2 mph - N/A   Mostly Cloudy
8:30 AM 79 °F - 76 °F 89% 29.58 in 1 mi NW 2.3 mph - - Rain Light Drizzle
9:00 AM 80.6 °F 87.1 °F 77.0 °F 89% 29.65 in 1.9 mi WNW 4.6 mph - N/A   Light Drizzle
10:00 AM 82.4 °F 92.4 °F 78.8 °F 89% 29.65 in 2.5 mi WNW 8.1 mph - N/A   Haze
11:00 AM 84.2 °F 96.1 °F 78.8 °F 84% 29.65 in 2.5 mi WNW 8.1 mph - N/A   Haze
11:30 AM 86 °F - 76 °F 66% 29.58 in 2 mi WNW 9.2 mph - -   Haze
12:00 PM 84.2 °F 96.1 °F 78.8 °F 84% 29.65 in 2.5 mi Variable 5.8 mph - N/A   Haze
1:00 PM 84.2 °F 94.1 °F 77.0 °F 79% 29.65 in 2.5 mi Variable 3.5 mph - N/A   Haze
2:00 PM 80.6 °F 87.1 °F 77.0 °F 89% 29.62 in 1.6 mi Calm Calm - N/A   Overcast
3:00 PM 78.8 °F - 77.0 °F 94% 29.62 in 1.1 mi NW 10.4 mph - N/A Rain , Thunderstorm Rain
4:00 PM 77.0 °F - 77.0 °F 100% 29.62 in 1.6 mi West 9.2 mph - N/A Rain , Thunderstorm Rain
5:00 PM 77.0 °F - 77.0 °F 100% 29.62 in 1.6 mi WNW 5.8 mph - N/A Rain , Thunderstorm Light Thunderstorms and Rain
5:30 PM 77 °F - 77 °F 100% 29.55 in 1 mi WNW 4.6 mph - - Rain Light Drizzle
6:00 PM 77.0 °F - 77.0 °F 100% 29.59 in 1.6 mi WNW 4.6 mph - N/A   Light Drizzle
7:00 PM 77.0 °F - 77.0 °F 100% 29.62 in 1.6 mi Calm Calm - N/A   Light Drizzle
8:00 PM 77.0 °F - 77.0 °F 100% 29.62 in 1.6 mi West 4.6 mph - N/A   Overcast
9:00 PM 77.0 °F - 77.0 °F 100% 29.65 in 1.6 mi Variable 1.2 mph - N/A   Overcast
10:00 PM 77.0 °F - 77.0 °F 100% 29.65 in 1.6 mi Variable 1.2 mph - N/A   Overcast
11:00 PM 77.0 °F - 77.0 °F 100% 29.65 in 1.6 mi Calm Calm - N/A   Overcast